Total_Precipitation_Accumulation
1.59 1.48 1.11 0.67 0.50 0.44 0.47 0.46 0.40 0.43 0.40 0.44 0.42 0.41 0.40 0.43 0.50 0.52 0.52 0.56 0.67 0.85 1.04 1.18 1.48 1.69 1.82 2.02 2.21 2.30 2.36 2.53 2.65 2.70 2.62 2.42 2.25 2.08 1.91 1.71 1.54 1.46 1.34 1.35
1.49 1.11 0.63 0.45 0.49 0.51 0.51 0.53 0.42 0.42 0.43 0.50 0.50 0.45 0.40 0.46 0.52 0.51 0.50 0.50 0.57 0.72 0.88 1.07 1.30 1.46 1.65 1.85 1.95 2.17 2.27 2.34 2.44 2.43 2.50 2.49 2.57 2.41 2.22 2.05 1.76 1.60 1.48 1.40
1.16 0.73 0.54 0.58 0.64 0.64 0.51 0.46 0.42 0.47 0.51 0.56 0.55 0.53 0.46 0.51 0.46 0.51 0.55 0.56 0.59 0.61 0.77 0.95 1.19 1.35 1.48 1.70 1.81 1.91 2.07 2.20 2.35 2.44 2.70 2.75 2.72 2.56 2.29 2.01 1.82 1.66 1.57 1.51
1.03 0.63 0.66 0.74 0.69 0.61 0.56 0.32 0.37 0.50 0.66 0.73 0.63 0.75 0.59 0.53 0.45 0.49 0.55 0.55 0.59 0.64 0.76 0.89 1.01 1.21 1.38 1.50 1.65 1.76 1.91 2.05 2.22 2.39 2.54 2.57 2.42 2.27 2.11 2.00 1.93 1.82 1.67 1.59
1.05 0.71 0.76 0.82 0.61 0.57 0.52 0.32 0.38 0.54 0.69 0.71 0.51 0.60 0.58 0.42 0.42 0.44 0.47 0.48 0.52 0.61 0.68 0.74 0.84 1.00 1.18 1.30 1.46 1.61 1.72 1.83 2.01 2.24 2.24 2.40 2.36 2.18 2.10 2.05 1.95 1.83 1.71 1.63
0.80 0.70 0.83 0.77 0.54 0.57 0.55 0.55 0.61 0.69 0.95 0.94 0.42 0.47 0.55 0.43 0.41 0.43 0.44 0.46 0.49 0.55 0.62 0.66 0.70 0.83 0.98 1.08 1.18 1.39 1.58 1.64 1.79 2.06 2.07 2.03 2.02 1.96 1.97 1.95 1.87 1.82 1.69 1.59
1.18 0.95 0.81 0.77 0.80 0.82 0.83 1.08 1.39 1.34 1.24 0.76 0.28 0.34 0.44 0.34 0.36 0.41 0.41 0.40 0.41 0.43 0.50 0.55 0.53 0.64 0.83 0.95 1.02 1.16 1.38 1.49 1.56 1.72 1.86 1.93 1.91 1.87 1.85 1.79 1.80 1.80 1.71 1.49
1.23 1.15 0.80 0.81 0.90 0.96 0.85 0.94 1.11 0.95 0.61 0.35 0.24 0.31 0.31 0.23 0.26 0.30 0.31 0.30 0.34 0.39 0.42 0.46 0.47 0.54 0.69 0.83 0.92 0.97 1.11 1.28 1.38 1.42 1.54 1.73 1.80 1.76 1.74 1.69 1.70 1.74 1.72 1.60
0.81 0.88 0.57 0.58 0.60 0.67 0.85 0.83 0.66 0.83 0.56 0.37 0.27 0.26 0.24 0.17 0.20 0.22 0.25 0.25 0.30 0.36 0.38 0.43 0.45 0.51 0.57 0.66 0.77 0.83 0.88 1.04 1.16 1.21 1.32 1.46 1.50 1.47 1.45 1.46 1.48 1.52 1.57 1.53
0.67 0.86 0.59 0.58 0.75 0.73 0.73 0.69 0.82 1.20 0.94 0.54 0.28 0.22 0.27 0.21 0.20 0.20 0.22 0.26 0.30 0.33 0.33 0.38 0.44 0.48 0.51 0.55 0.61 0.68 0.77 0.89 1.01 1.06 1.12 1.16 1.21 1.26 1.22 1.20 1.22 1.26 1.29 1.31
0.61 0.91 0.77 0.77 0.92 0.71 0.68 0.79 0.89 0.92 0.75 0.68 0.40 0.27 0.25 0.23 0.20 0.20 0.22 0.26 0.30 0.31 0.32 0.36 0.40 0.46 0.51 0.58 0.60 0.63 0.67 0.75 0.88 0.94 0.92 0.87 0.91 1.02 1.06 1.05 1.02 1.04 1.10 1.19
0.57 0.90 0.79 0.60 0.51 0.42 0.53 0.56 0.68 0.95 0.68 0.54 0.47 0.32 0.19 0.19 0.22 0.24 0.25 0.28 0.27 0.25 0.28 0.32 0.36 0.44 0.47 0.53 0.59 0.64 0.64 0.68 0.76 0.80 0.82 0.79 0.75 0.83 0.88 0.83 0.82 0.85 0.86 0.95
0.65 1.03 1.02 0.74 0.67 0.61 0.62 0.48 0.50 0.79 1.03 0.76 0.62 0.36 0.17 0.14 0.18 0.23 0.26 0.28 0.25 0.23 0.24 0.26 0.30 0.38 0.44 0.48 0.52 0.56 0.58 0.60 0.67 0.69 0.73 0.76 0.74 0.78 0.85 0.79 0.71 0.71 0.72 0.73
0.89 1.06 0.93 0.79 0.64 0.63 0.60 0.45 0.52 1.08 1.36 0.72 0.40 0.29 0.21 0.18 0.21 0.24 0.28 0.30 0.26 0.24 0.26 0.27 0.30 0.35 0.39 0.43 0.48 0.50 0.53 0.56 0.58 0.59 0.64 0.68 0.70 0.72 0.80 0.80 0.69 0.67 0.67 0.67
0.89 1.08 0.71 0.47 0.39 0.49 0.50 0.46 0.55 0.86 0.81 0.71 0.37 0.28 0.30 0.29 0.29 0.28 0.27 0.26 0.24 0.23 0.26 0.28 0.31 0.33 0.33 0.35 0.38 0.40 0.42 0.45 0.49 0.51 0.54 0.63 0.65 0.66 0.74 0.77 0.73 0.72 0.72 0.69
0.61 0.88 0.72 0.52 0.34 0.41 0.45 0.41 0.46 0.53 0.50 0.49 0.40 0.37 0.26 0.26 0.24 0.25 0.26 0.24 0.26 0.23 0.24 0.25 0.28 0.30 0.29 0.31 0.34 0.36 0.39 0.41 0.45 0.48 0.50 0.53 0.56 0.57 0.63 0.69 0.68 0.69 0.72 0.74
0.42 0.66 0.86 0.66 0.39 0.52 0.61 0.47 0.46 0.44 0.35 0.36 0.41 0.31 0.21 0.23 0.24 0.22 0.20 0.18 0.20 0.20 0.19 0.20 0.23 0.26 0.28 0.26 0.28 0.33 0.38 0.42 0.46 0.50 0.50 0.50 0.51 0.52 0.52 0.56 0.61 0.69 0.76 0.79
0.26 0.49 0.86 0.69 0.55 0.71 0.52 0.35 0.33 0.33 0.29 0.27 0.28 0.20 0.18 0.21 0.22 0.20 0.16 0.14 0.13 0.13 0.13 0.14 0.17 0.21 0.26 0.24 0.25 0.28 0.28 0.33 0.38 0.43 0.43 0.44 0.50 0.54 0.54 0.58 0.68 0.78 0.86 0.93
0.14 0.43 0.83 0.73 0.54 0.35 0.21 0.16 0.19 0.25 0.28 0.20 0.19 0.16 0.14 0.16 0.21 0.21 0.19 0.17 0.14 0.12 0.12 0.11 0.11 0.15 0.19 0.20 0.22 0.24 0.25 0.29 0.32 0.37 0.40 0.41 0.47 0.59 0.69 0.77 0.87 0.93 1.01 1.06
0.15 0.35 0.80 0.73 0.60 0.32 0.16 0.06 0.06 0.16 0.30 0.14 0.12 0.15 0.15 0.17 0.22 0.19 0.15 0.13 0.13 0.12 0.11 0.11 0.09 0.10 0.12 0.15 0.18 0.20 0.24 0.30 0.37 0.43 0.49 0.54 0.61 0.73 0.84 0.89 0.95 0.94 0.93 0.94
0.31 0.51 0.69 0.60 0.57 0.27 0.11 0.05 0.07 0.27 0.33 0.09 0.08 0.12 0.16 0.18 0.20 0.15 0.11 0.11 0.11 0.12 0.13 0.15 0.16 0.18 0.19 0.21 0.25 0.31 0.35 0.44 0.52 0.55 0.62 0.68 0.68 0.69 0.71 0.72 0.71 0.66 0.60 0.57
0.24 0.36 0.38 0.41 0.57 0.36 0.13 0.09 0.16 0.24 0.14 0.09 0.09 0.10 0.14 0.16 0.15 0.15 0.13 0.10 0.10 0.11 0.12 0.15 0.22 0.30 0.32 0.35 0.42 0.48 0.51 0.55 0.57 0.60 0.62 0.63 0.63 0.59 0.55 0.50 0.43 0.37 0.32 0.30
0.20 0.27 0.32 0.35 0.38 0.26 0.15 0.14 0.13 0.11 0.12 0.11 0.11 0.11 0.12 0.14 0.15 0.15 0.15 0.12 0.09 0.08 0.09 0.12 0.17 0.22 0.27 0.31 0.35 0.40 0.42 0.41 0.42 0.46 0.49 0.49 0.46 0.41 0.37 0.33 0.29 0.25 0.23 0.22
0.21 0.18 0.23 0.26 0.23 0.17 0.14 0.11 0.10 0.09 0.10 0.10 0.10 0.10 0.10 0.11 0.11 0.11 0.10 0.10 0.10 0.09 0.08 0.08 0.09 0.11 0.12 0.14 0.18 0.21 0.19 0.18 0.19 0.23 0.28 0.30 0.30 0.28 0.25 0.23 0.22 0.21 0.20 0.19
0.21 0.20 0.24 0.26 0.19 0.15 0.15 0.13 0.12 0.10 0.09 0.08 0.08 0.10 0.11 0.11 0.11 0.10 0.08 0.08 0.09 0.09 0.09 0.09 0.10 0.11 0.11 0.11 0.12 0.13 0.12 0.12 0.12 0.13 0.15 0.17 0.18 0.19 0.20 0.20 0.20 0.21 0.21 0.22
0.16 0.19 0.27 0.29 0.17 0.18 0.18 0.12 0.10 0.09 0.09 0.07 0.07 0.09 0.09 0.08 0.10 0.11 0.10 0.09 0.09 0.09 0.09 0.10 0.11 0.11 0.11 0.11 0.10 0.10 0.10 0.11 0.12 0.13 0.13 0.13 0.15 0.16 0.18 0.19 0.20 0.22 0.23 0.26